Content
SEND FEEDBACK

Daily
Averages
Monthly
Summary
United States of America

PLEASANT HILL, CALIFORNIA


Home > North America > United States > California
Elevation: 40 meters     Latitude: 37 57N     Longitude: 122 05W

WEATHER
 
SELECT A DAY
Number of Records: 166,791;   Date Range: 1/1/95 - 9/21/14
 
SHARE

PRINT THIS DATA

[ ← Previous Day ]
WEATHER ALMANAC - 13 FEBRUARY, 2013
[ Next Day → ]
[ °F ]   °C
Weather ElementAverageHighLow
Temperature9.8 °C17.8 °C (2:53 pm)2.8 °C (5:53 am)
Dewpoint2.7 °C6.1 °C (4:53 pm)0.6 °C (5:53 am)
Humidity64.5 %86 % (4:53 am)35 % (2:53 pm)
Barometer1024 hPa1026.4 hPa (7:53 am)1021.7 hPa (4:53 pm)
Wind Speed2.7 km/h13 km/h (3:53 pm)
Weather ElementAverage
Visibility16.1 km
Wind DirectionENE (80 °)

Weather ElementTotal
Precipitation---
Heating Degree Days8.1 (Base 18.3)
Growing Degree Days0.3 (Base 10)
Averaged from 23 records on 13 February, 2013
WEATHER CONDITIONS BREAKOUT
WIND DIRECTION BREAKOUT
WEATHER BY HOUR - 13 FEBRUARY, 2013
[ °F ]   °C
Local TimeTemperatureDewpointHumidityBarometerVisibilityWind DirectionWind SpeedGust SpeedPrecipitationEventsConditions
1:53 AM5 °C1.7 °C79 %1026.1 hPa16.1 kmCalmClear
2:53 AM4.4 °C1.7 °C83 %1025.7 hPa16.1 kmCalmClear
3:53 AM3.9 °C1.1 °C82 %1025.4 hPa16.1 kmSSE (150°)5.6 km/hClear
4:53 AM3.3 °C1.1 °C86 %1025.7 hPa16.1 kmCalmClear
5:53 AM2.8 °C0.6 °C86 %1025.7 hPa16.1 kmCalmClear
6:53 AM2.8 °C0.6 °C86 %1025.7 hPa16.1 kmSSE (150°)5.6 km/hClear
7:53 AM3.3 °C1.1 °C86 %1026.4 hPa16.1 kmSSE (160°)5.6 km/hClear
8:53 AM6.7 °C2.2 °C73 %1026.4 hPa16.1 kmSouth (170°)5.6 km/hClear
9:53 AM10 °C2.8 °C61 %1026.4 hPa16.1 kmCalmClear
10:53 AM13.3 °C3.9 °C53 %1026.4 hPa16.1 kmCalmClear
11:53 AM15.6 °C2.2 °C41 %1025.4 hPa16.1 kmVariable5.6 km/hClear
12:53 PM16.1 °C2.2 °C39 %1024.4 hPa16.1 kmCalmClear
1:53 PM16.7 °C2.2 °C38 %1023.4 hPa16.1 kmCalmClear
2:53 PM17.8 °C2.2 °C35 %1022.7 hPa16.1 kmNorth (360°)5.6 km/hClear
3:53 PM17.8 °C3.9 °C40 %1022.4 hPa16.1 kmNW (310°)13 km/hClear
4:53 PM16.7 °C6.1 °C50 %1021.7 hPa16.1 kmWNW (300°)7.4 km/hClear
5:53 PM15 °C4.4 °C49 %1021.7 hPa16.1 kmWSW (240°)7.4 km/hClear
6:53 PM13.3 °C3.9 °C53 %1021.7 hPa16.1 kmCalmClear
7:53 PM10 °C3.9 °C66 %1022 hPa16.1 kmCalmClear
8:53 PM10 °C3.9 °C66 %1022.4 hPa16.1 kmCalmClear
9:53 PM7.8 °C3.3 °C73 %1022.4 hPa16.1 kmCalmClear
10:53 PM6.7 °C3.3 °C79 %1022.4 hPa16.1 kmCalmClear
11:53 PM6.1 °C2.8 °C80 %1022.4 hPa16.1 kmCalmClear
Hourly data recorded from KCCR, located 0 kilometers away from Pleasant Hill, California







STORIES FROM OUR PARTNERS